SAS527 ESSA-EGLL

Flight info

Callsign SAS527
Flight time N/A
Altitude 38000
Route ARS N623 BEDLA N866 LAPSI DCT UPGAS DCT TIPAN DCT WECOW DCT BINBO DCT AKOKO N866 BUKUT P7 BARMI
Aircraft A320/M-SDE3FGHIJ1RWXYZ/ALB1

Departure

Time 2026-05-06 13:02
Airport Stockholm-Arlanda Airport (ESSA)

Arrival

Time N/A
Airport London Heathrow Airport (EGLL)
Time Latitude Longitude Altitude Speed Heading
2026-05-06 12:34 59.65434 17.93506 111 ft 0 kts 76°
2026-05-06 12:53 59.65433 17.93498 112 ft 3 kts 76°
2026-05-06 12:53 59.65426 17.93446 110 ft 4 kts 72°
2026-05-06 12:54 59.65416 17.93398 108 ft 4 kts 53°
2026-05-06 12:54 59.65399 17.93372 109 ft 2 kts 347°
2026-05-06 12:54 59.65397 17.93373 109 ft 0 kts 346°
2026-05-06 12:57 59.65401 17.93371 109 ft 2 kts 346°
2026-05-06 12:57 59.65427 17.93359 111 ft 7 kts 346°
2026-05-06 12:58 59.65496 17.93345 112 ft 11 kts 359°
2026-05-06 12:58 59.65522 17.93215 112 ft 13 kts 259°
2026-05-06 12:58 59.65498 17.93034 110 ft 12 kts 251°
2026-05-06 12:58 59.65467 17.92862 111 ft 15 kts 250°
2026-05-06 12:59 59.65432 17.92666 111 ft 13 kts 272°
2026-05-06 12:59 59.65522 17.92538 105 ft 19 kts 336°
2026-05-06 12:59 59.65666 17.92462 102 ft 23 kts 344°
2026-05-06 12:59 59.65785 17.92429 105 ft 13 kts
2026-05-06 13:00 59.65876 17.92453 107 ft 12 kts 352°
2026-05-06 13:00 59.65915 17.92332 110 ft 11 kts 281°
2026-05-06 13:00 59.65929 17.92200 114 ft 7 kts 281°
2026-05-06 13:00 59.65917 17.92115 113 ft 8 kts 201°
2026-05-06 13:01 59.65849 17.92091 113 ft 15 kts 190°
2026-05-06 13:01 59.65540 17.91979 107 ft 80 kts 190°
2026-05-06 13:01 59.64782 17.91705 108 ft 136 kts 191°
2026-05-06 13:01 59.63715 17.91326 259 ft 165 kts 190°
2026-05-06 13:02 59.62580 17.90929 919 ft 166 kts 191°
2026-05-06 13:02 59.61436 17.90512 1670 ft 167 kts 192°
2026-05-06 13:02 59.60302 17.89809 2167 ft 180 kts 217°
2026-05-06 13:02 59.59521 17.87731 2480 ft 204 kts 243°
2026-05-06 13:03 59.58924 17.85039 3054 ft 220 kts 247°
2026-05-06 13:03 59.58327 17.82232 4001 ft 223 kts 247°
2026-05-06 13:03 59.57709 17.79289 4538 ft 244 kts 247°
2026-05-06 13:03 59.57031 17.76099 5264 ft 257 kts 248°
2026-05-06 13:04 59.56676 17.72608 6205 ft 263 kts 269°
2026-05-06 13:04 59.56803 17.68992 7140 ft 266 kts 273°
2026-05-06 13:04 59.56911 17.65339 8110 ft 267 kts 272°
2026-05-06 13:04 59.56994 17.61668 9098 ft 269 kts 272°
2026-05-06 13:05 59.57067 17.57971 10035 ft 270 kts 272°
2026-05-06 13:05 59.57140 17.54101 10417 ft 291 kts 272°
2026-05-06 13:05 59.57192 17.51369 10649 ft 302 kts 272°
2026-05-06 13:05 59.57274 17.47148 11310 ft 309 kts 272°
2026-05-06 13:06 59.57357 17.42888 12101 ft 312 kts 272°
2026-05-06 13:06 59.57439 17.38601 12915 ft 313 kts 272°
2026-05-06 13:06 59.57522 17.34240 13686 ft 316 kts 272°
2026-05-06 13:06 59.57604 17.29899 13919 ft 316 kts 272°
2026-05-06 13:07 59.57683 17.25588 13978 ft 315 kts 272°
2026-05-06 13:07 59.57758 17.21265 13991 ft 315 kts 272°
2026-05-06 13:07 59.57831 17.16957 13992 ft 315 kts 272°
2026-05-06 13:07 59.57901 17.12636 13990 ft 315 kts 272°
2026-05-06 13:08 59.57970 17.08315 13992 ft 315 kts 272°
2026-05-06 13:08 59.58040 17.04011 13993 ft 314 kts 272°
2026-05-06 13:08 59.58109 16.99700 13996 ft 314 kts 272°
2026-05-06 13:08 59.58179 16.95380 13999 ft 314 kts 272°
2026-05-06 13:09 59.58250 16.91073 14003 ft 314 kts 272°
2026-05-06 13:09 59.58320 16.86753 13997 ft 314 kts 272°
2026-05-06 13:09 59.58383 16.82451 14005 ft 314 kts 272°
2026-05-06 13:09 59.58443 16.78142 14002 ft 314 kts 272°
2026-05-06 13:10 59.58501 16.73839 14004 ft 314 kts 272°
2026-05-06 13:10 59.58559 16.69518 14004 ft 314 kts 272°
2026-05-06 13:10 59.58651 16.65209 14053 ft 316 kts 277°
2026-05-06 13:10 59.59066 16.60938 14728 ft 318 kts 281°
2026-05-06 13:11 59.59511 16.56654 15467 ft 319 kts 280°
2026-05-06 13:11 59.59950 16.52302 16181 ft 320 kts 279°
2026-05-06 13:11 59.60371 16.48037 16873 ft 321 kts 279°
2026-05-06 13:11 59.60803 16.43635 17585 ft 323 kts 278°
2026-05-06 13:12 59.61232 16.39267 18281 ft 325 kts 278°
2026-05-06 13:12 59.61664 16.34880 18887 ft 327 kts 277°
2026-05-06 13:12 59.62098 16.30462 19511 ft 329 kts 276°
2026-05-06 13:12 59.62244 16.25967 20128 ft 327 kts 264°
2026-05-06 13:13 59.61875 16.21548 20749 ft 327 kts 253°
2026-05-06 13:13 59.61010 16.17390 21372 ft 329 kts 242°
2026-05-06 13:13 59.59741 16.13613 21988 ft 331 kts 237°
2026-05-06 13:13 59.58410 16.09879 22604 ft 333 kts 237°
2026-05-06 13:14 59.57078 16.06141 23207 ft 335 kts 236°
2026-05-06 13:14 59.55732 16.02374 23759 ft 336 kts 236°
2026-05-06 13:14 59.54381 15.98596 24243 ft 338 kts 236°
2026-05-06 13:14 59.53023 15.94803 24733 ft 339 kts 236°
2026-05-06 13:15 59.51663 15.91006 25214 ft 340 kts 236°
2026-05-06 13:15 59.50301 15.87210 25703 ft 341 kts 236°
2026-05-06 13:15 59.48928 15.83394 26170 ft 342 kts 236°
2026-05-06 13:15 59.47549 15.79567 26628 ft 343 kts 236°
2026-05-06 13:16 59.46166 15.75732 27073 ft 344 kts 235°
2026-05-06 13:16 59.44774 15.71885 27514 ft 346 kts 235°
2026-05-06 13:16 59.43375 15.68026 27938 ft 347 kts 235°
2026-05-06 13:16 59.41951 15.64108 28376 ft 349 kts 235°
2026-05-06 13:17 59.40555 15.60274 28786 ft 350 kts 235°
2026-05-06 13:17 59.39135 15.56379 29198 ft 352 kts 235°
2026-05-06 13:17 59.37688 15.52407 29622 ft 353 kts 235°
2026-05-06 13:17 59.36275 15.48537 30018 ft 355 kts 234°
2026-05-06 13:18 59.34839 15.44596 30360 ft 357 kts 234°
2026-05-06 13:18 59.33390 15.40629 30669 ft 359 kts 234°
2026-05-06 13:18 59.31912 15.36594 30983 ft 362 kts 234°
2026-05-06 13:18 59.30442 15.32590 31289 ft 363 kts 234°
2026-05-06 13:19 59.28962 15.28573 31710 ft 363 kts 234°
2026-05-06 13:19 59.27488 15.24588 32121 ft 363 kts 234°
2026-05-06 13:19 59.26009 15.20591 32543 ft 362 kts 234°
2026-05-06 13:19 59.24530 15.16594 32936 ft 362 kts 234°
2026-05-06 13:20 59.23057 15.12618 33361 ft 362 kts 233°
2026-05-06 13:20 59.21574 15.08632 33786 ft 362 kts 233°
2026-05-06 13:20 59.20074 15.04610 34171 ft 362 kts 233°
2026-05-06 13:20 59.18583 15.00623 34474 ft 363 kts 233°
2026-05-06 13:21 59.17097 14.96649 34729 ft 365 kts 233°
2026-05-06 13:21 59.15615 14.92680 34985 ft 367 kts 234°
2026-05-06 13:21 59.14094 14.88603 35237 ft 368 kts 234°
2026-05-06 13:21 59.12580 14.84562 35483 ft 370 kts 234°
2026-05-06 13:22 59.11055 14.80502 35723 ft 372 kts 234°
2026-05-06 13:22 59.09525 14.76439 35961 ft 374 kts 234°
2026-05-06 13:22 59.07982 14.72352 36203 ft 375 kts 234°
2026-05-06 13:22 59.06428 14.68252 36432 ft 377 kts 234°
2026-05-06 13:23 59.04872 14.64156 36656 ft 378 kts 234°
2026-05-06 13:23 59.03288 14.59985 36884 ft 380 kts 234°
2026-05-06 13:23 59.01717 14.55847 37102 ft 381 kts 234°
2026-05-06 13:23 59.00141 14.51690 37323 ft 383 kts 234°
2026-05-06 13:24 58.98556 14.47531 37538 ft 384 kts 234°
2026-05-06 13:24 58.96968 14.43376 37753 ft 385 kts 234°
2026-05-06 13:24 58.95366 14.39196 37929 ft 387 kts 234°
2026-05-06 13:25 58.92148 14.30797 37962 ft 389 kts 235°
2026-05-06 13:25 58.89141 14.22098 37967 ft 388 kts 238°
2026-05-06 13:26 58.86342 14.13184 37963 ft 389 kts 239°
2026-05-06 13:26 58.83522 14.04259 37964 ft 389 kts 238°
2026-05-06 13:27 58.80632 13.95379 37964 ft 389 kts 238°
2026-05-06 13:27 58.77740 13.86630 37966 ft 389 kts 238°
2026-05-06 13:28 58.74813 13.77779 37962 ft 389 kts 238°
2026-05-06 13:28 58.71880 13.68921 37963 ft 390 kts 238°
2026-05-06 13:29 58.68962 13.60129 37961 ft 390 kts 238°
2026-05-06 13:29 58.66038 13.51356 37960 ft 390 kts 238°
2026-05-06 13:30 58.63109 13.42598 37956 ft 390 kts 237°
2026-05-06 13:30 58.60172 13.33867 37962 ft 390 kts 237°
2026-05-06 13:31 58.57217 13.25114 37955 ft 390 kts 237°
2026-05-06 13:31 58.54257 13.16399 37953 ft 391 kts 237°
2026-05-06 13:32 58.51279 13.07615 37950 ft 391 kts 237°
2026-05-06 13:32 58.48315 12.98912 37947 ft 391 kts 237°
2026-05-06 13:33 58.45823 12.91631 37949 ft 391 kts 237°
2026-05-06 13:33 58.42845 12.82937 37947 ft 391 kts 237°
2026-05-06 13:34 58.39853 12.74251 37948 ft 391 kts 237°
2026-05-06 13:34 58.36854 12.65599 37948 ft 391 kts 237°
2026-05-06 13:35 58.33854 12.56959 37948 ft 392 kts 237°
2026-05-06 13:35 58.30839 12.48295 37947 ft 392 kts 237°
2026-05-06 13:36 58.27807 12.39624 37946 ft 392 kts 237°
2026-05-06 13:36 58.24779 12.31002 37946 ft 392 kts 237°
2026-05-06 13:37 58.21747 12.22396 37948 ft 393 kts 236°
2026-05-06 13:37 58.18707 12.13804 37945 ft 393 kts 236°
2026-05-06 13:38 58.15659 12.05197 37948 ft 393 kts 236°
2026-05-06 13:38 58.12599 11.96568 37948 ft 393 kts 236°
2026-05-06 13:39 58.09537 11.87993 37956 ft 393 kts 236°
2026-05-06 13:39 58.06465 11.79453 37960 ft 393 kts 236°
2026-05-06 13:40 58.03391 11.70936 37964 ft 393 kts 236°
2026-05-06 13:40 58.00287 11.62341 37966 ft 393 kts 236°
2026-05-06 13:41 57.97206 11.53833 37968 ft 393 kts 236°
2026-05-06 13:41 57.94095 11.45275 37968 ft 393 kts 236°
2026-05-06 13:42 57.90998 11.36778 37967 ft 394 kts 236°
2026-05-06 13:42 57.87893 11.28291 37968 ft 394 kts 236°
2026-05-06 13:43 57.84756 11.19755 37963 ft 394 kts 236°
2026-05-06 13:43 57.81626 11.11290 37967 ft 394 kts 235°
2026-05-06 13:44 57.78496 11.02842 37971 ft 395 kts 235°
2026-05-06 13:44 57.75337 10.94347 37971 ft 395 kts 235°
2026-05-06 13:45 57.72217 10.85965 37966 ft 395 kts 235°
2026-05-06 13:45 57.67475 10.73279 37969 ft 395 kts 235°
2026-05-06 13:46 57.64291 10.64829 37970 ft 395 kts 235°
2026-05-06 13:46 57.61120 10.56446 37970 ft 396 kts 235°
2026-05-06 13:47 57.57940 10.48054 37967 ft 396 kts 235°
2026-05-06 13:47 57.54751 10.39679 37971 ft 396 kts 235°
2026-05-06 13:48 57.51558 10.31309 37965 ft 397 kts 235°
2026-05-06 13:48 57.48367 10.22943 37968 ft 397 kts 235°
2026-05-06 13:49 57.45160 10.14581 37969 ft 397 kts 234°
2026-05-06 13:49 57.41922 10.06188 37967 ft 397 kts 234°
2026-05-06 13:50 57.38695 9.97857 37970 ft 397 kts 234°
2026-05-06 13:50 57.35461 9.89537 37969 ft 398 kts 234°
2026-05-06 13:51 57.32222 9.81222 37970 ft 398 kts 234°
2026-05-06 13:51 57.28981 9.72920 37976 ft 398 kts 234°
2026-05-06 13:52 57.25732 9.64630 37972 ft 399 kts 234°
2026-05-06 13:52 57.22470 9.56347 37972 ft 399 kts 234°
2026-05-06 13:53 57.19195 9.48087 37973 ft 399 kts 234°
2026-05-06 13:53 57.15904 9.39767 37972 ft 399 kts 234°
2026-05-06 13:54 57.12628 9.31508 37975 ft 399 kts 234°
2026-05-06 13:54 57.09339 9.23257 37970 ft 400 kts 234°
2026-05-06 13:55 57.06047 9.15030 37969 ft 400 kts 234°
2026-05-06 13:55 57.02735 9.06792 37971 ft 400 kts 234°
2026-05-06 13:56 56.99957 8.99911 37970 ft 401 kts 233°
2026-05-06 13:56 56.96616 8.91652 37971 ft 401 kts 234°
2026-05-06 13:57 56.93295 8.83460 37971 ft 401 kts 233°
2026-05-06 13:57 56.89951 8.75254 37972 ft 401 kts 233°
2026-05-06 13:58 56.86611 8.67071 37971 ft 402 kts 233°
2026-05-06 13:58 56.83263 8.58890 37971 ft 402 kts 233°
2026-05-06 13:59 56.79904 8.50719 37975 ft 402 kts 233°
2026-05-06 13:59 56.76537 8.42571 37975 ft 402 kts 233°
2026-05-06 14:00 56.73133 8.34358 37977 ft 403 kts 233°
2026-05-06 14:00 56.69756 8.26223 37979 ft 403 kts 233°
2026-05-06 14:01 56.66382 8.18118 37984 ft 403 kts 233°
2026-05-06 14:01 56.62966 8.09934 37987 ft 403 kts 233°
2026-05-06 14:02 56.59563 8.01821 37984 ft 404 kts 233°
2026-05-06 14:02 56.56160 7.93741 37985 ft 404 kts 233°
2026-05-06 14:03 56.52737 7.85655 37989 ft 404 kts 233°
2026-05-06 14:03 56.49313 7.77576 37988 ft 404 kts 233°
2026-05-06 14:04 56.45885 7.69509 37992 ft 405 kts 233°
2026-05-06 14:04 56.42443 7.61458 37993 ft 405 kts 233°
2026-05-06 14:05 56.38996 7.53394 37992 ft 405 kts 233°
2026-05-06 14:05 56.35525 7.45304 37997 ft 405 kts 233°
2026-05-06 14:06 56.32069 7.37270 38001 ft 406 kts 232°
2026-05-06 14:06 56.28606 7.29269 37999 ft 406 kts 232°
2026-05-06 14:07 56.25135 7.21249 38002 ft 406 kts 232°
2026-05-06 14:07 56.21655 7.13247 37999 ft 406 kts 232°
2026-05-06 14:08 56.18139 7.05227 38000 ft 406 kts 232°
2026-05-06 14:08 56.14648 6.97269 37996 ft 406 kts 232°
2026-05-06 14:09 56.11144 6.89301 37999 ft 407 kts 232°
2026-05-06 14:09 56.07638 6.81352 38002 ft 407 kts 232°
2026-05-06 14:10 56.04124 6.73393 38004 ft 407 kts 232°
2026-05-06 14:10 56.00611 6.65466 38006 ft 407 kts 232°
2026-05-06 14:11 55.97082 6.57542 38002 ft 407 kts 232°
2026-05-06 14:11 55.93515 6.49585 38004 ft 408 kts 232°
2026-05-06 14:12 55.89972 6.41701 38007 ft 408 kts 232°
2026-05-06 14:12 55.86403 6.33736 38009 ft 408 kts 232°
2026-05-06 14:13 55.82852 6.25832 38009 ft 408 kts 232°
2026-05-06 14:13 55.79289 6.17973 38012 ft 409 kts 232°
2026-05-06 14:14 55.75708 6.10130 38011 ft 409 kts 231°
2026-05-06 14:14 55.72132 6.02282 38013 ft 409 kts 232°
2026-05-06 14:15 55.68552 5.94430 38013 ft 409 kts 232°
2026-05-06 14:15 55.64964 5.86598 38014 ft 410 kts 231°
2026-05-06 14:16 55.61362 5.78780 38010 ft 410 kts 231°
2026-05-06 14:16 55.57748 5.70962 38030 ft 410 kts 231°
2026-05-06 14:17 55.54114 5.63115 38014 ft 410 kts 231°
2026-05-06 14:17 55.50514 5.55364 38011 ft 411 kts 231°
2026-05-06 14:18 55.46872 5.47528 38027 ft 411 kts 231°
2026-05-06 14:18 55.43242 5.39753 38019 ft 411 kts 231°
2026-05-06 14:19 55.39605 5.31990 38012 ft 411 kts 231°
2026-05-06 14:19 55.35955 5.24238 38012 ft 411 kts 231°
2026-05-06 14:20 55.32306 5.16508 38018 ft 411 kts 231°
2026-05-06 14:20 55.28639 5.08776 38019 ft 412 kts 231°
2026-05-06 14:21 55.24851 5.01259 38020 ft 413 kts 223°
2026-05-06 14:21 55.20030 4.95784 38024 ft 416 kts 210°
2026-05-06 14:22 55.15779 4.91791 38023 ft 417 kts 210°
2026-05-06 14:22 55.10642 4.86951 38016 ft 417 kts 210°
2026-05-06 14:23 55.05538 4.82152 38020 ft 417 kts 210°
2026-05-06 14:23 55.00420 4.77358 38016 ft 417 kts 210°
2026-05-06 14:24 54.95303 4.72589 38022 ft 418 kts 210°
2026-05-06 14:24 54.90168 4.67829 38021 ft 418 kts 210°
2026-05-06 14:25 54.85033 4.63075 38024 ft 418 kts 210°
2026-05-06 14:25 54.79899 4.58321 38022 ft 419 kts 210°
2026-05-06 14:26 54.74721 4.53538 38021 ft 419 kts 210°
2026-05-06 14:26 54.69577 4.48812 38021 ft 419 kts 210°
2026-05-06 14:27 54.64397 4.44070 38017 ft 419 kts 210°
2026-05-06 14:27 54.59201 4.39311 38016 ft 420 kts 210°
2026-05-06 14:28 54.54044 4.34602 38015 ft 420 kts 210°
2026-05-06 14:28 54.48836 4.29869 38014 ft 420 kts 210°
2026-05-06 14:29 54.43661 4.25177 38012 ft 420 kts 210°
2026-05-06 14:29 54.38476 4.20507 38011 ft 421 kts 210°
2026-05-06 14:30 54.33261 4.15810 38011 ft 421 kts 210°
2026-05-06 14:30 54.28086 4.11144 38009 ft 421 kts 210°
2026-05-06 14:31 54.22899 4.06494 38003 ft 421 kts 209°
2026-05-06 14:31 54.17700 4.01865 38005 ft 421 kts 209°
2026-05-06 14:32 54.12499 3.97236 38005 ft 422 kts 209°
2026-05-06 14:32 54.07300 3.92609 38004 ft 422 kts 209°
2026-05-06 14:33 54.02054 3.87960 38002 ft 422 kts 209°
2026-05-06 14:33 53.96833 3.83353 37999 ft 422 kts 209°
2026-05-06 14:34 53.91617 3.78755 37998 ft 423 kts 209°
2026-05-06 14:34 53.86350 3.74130 38002 ft 423 kts 209°
2026-05-06 14:35 53.81132 3.69568 38002 ft 423 kts 209°
2026-05-06 14:35 53.75892 3.65012 38004 ft 423 kts 209°
2026-05-06 14:36 53.70629 3.60420 38006 ft 423 kts 209°
2026-05-06 14:36 53.65393 3.55853 38004 ft 423 kts 209°
2026-05-06 14:37 53.60122 3.51292 38006 ft 424 kts 209°
2026-05-06 14:37 53.54874 3.46753 38006 ft 424 kts 209°
2026-05-06 14:38 53.49623 3.42249 38002 ft 424 kts 208°
2026-05-06 14:38 53.44366 3.37753 37994 ft 424 kts 208°
2026-05-06 14:39 53.39113 3.33252 37989 ft 424 kts 208°
2026-05-06 14:39 53.33833 3.28729 37984 ft 424 kts 208°
2026-05-06 14:40 53.28564 3.24259 37982 ft 425 kts 208°
2026-05-06 14:40 53.23295 3.19798 37976 ft 425 kts 208°
2026-05-06 14:41 53.18812 3.15987 37976 ft 425 kts 208°
2026-05-06 14:41 53.13498 3.11496 37973 ft 425 kts 208°